Location: Barcelona
(41.3830°N, 2.1830°E)
Time: 02:42:52
(UTC+02:00)

ISS - Pass Details

Date: 03 July 2020
Orbit: 417 x 421 km, 51.6° (Epoch: 09 July)

Event Time Altitude Azimuth Distance (km) Brightness Sun altitude
Exits shadow 05:41:51 - 278° (W) 2,282 -0.4 -7.1°
Reaches altitude 10° 05:44:10 10° 297° (WNW) 1,495 -1.2 -6.7°
Maximum altitude 05:46:39 19° 344° (NNW) 1,069 -1.4 -6.4°
Drops below altitude 10° 05:49:08 10° 32° (NNE) 1,498 0.4 -6.0°
Sets 05:51:40 0° 51° (NE) 2,364 3.1 -5.6°
